Wind_Speed
31 33 34 34 32 32 37 43 45 40 38 36 35 35 34 34 34 34 34 33 32 33 33 33 35 37 37 36 35 36 36 35 34 33 34 34 35 32 28 30 33 30 31
29 30 33 35 34 37 41 46 43 40 38 37 37 38 38 39 39 39 39 40 40 40 40 40 40 41 42 43 42 41 41 41 40 39 36 36 36 37 35 34 32 27 35
30 35 32 37 39 43 43 43 41 39 40 42 44 45 46 46 46 47 46 47 47 48 48 48 49 49 49 48 49 49 47 47 47 45 44 42 40 39 41 41 37 32 32
34 35 42 46 45 49 46 44 43 46 48 50 52 52 54 54 54 54 55 56 57 58 58 58 58 57 57 57 57 55 55 53 53 54 51 48 48 47 45 44 42 40 39
46 46 49 50 47 46 45 47 50 53 55 57 58 60 61 62 63 64 65 66 67 68 68 68 67 68 67 67 66 65 63 61 59 58 58 57 54 51 50 48 46 47 46
47 46 46 45 46 46 50 54 57 58 60 62 65 68 70 72 73 72 72 73 74 75 76 77 78 77 76 75 73 73 72 70 68 65 63 63 61 58 55 54 53 50 50
44 45 46 47 49 53 59 62 64 66 68 70 73 75 75 76 74 76 79 81 82 82 83 84 85 86 85 83 81 79 78 77 77 75 72 70 68 66 63 60 59 57 55
44 46 48 52 57 62 65 64 67 69 72 74 77 80 81 82 82 84 86 87 88 87 88 89 90 91 92 93 92 89 85 82 82 81 80 79 76 72 71 68 65 63 61
50 53 56 60 63 63 63 67 70 73 77 81 87 90 92 95 97 96 95 97 99 98 95 93 91 90 90 90 93 95 94 92 87 85 84 83 83 81 76 74 72 69 66
55 57 60 62 62 66 70 74 76 82 86 89 94 98 102 105 105 105 103 103 100 97 96 95 96 97 97 97 96 92 92 94 95 91 89 87 86 86 84 78 77 76 71
57 60 61 63 68 72 76 80 84 88 92 96 98 100 102 105 103 100 94 87 84 81 82 84 86 90 95 98 100 101 98 95 95 96 94 92 90 87 87 84 80 79 78
60 61 65 70 74 77 82 87 91 93 95 100 103 104 102 96 88 79 82 82 73 63 65 67 67 69 72 74 84 93 97 100 99 97 97 97 94 90 88 88 85 82 81
64 67 71 75 79 83 88 91 93 97 101 104 101 95 89 80 72 68 67 65 61 53 50 51 50 50 52 51 53 60 69 80 92 99 97 97 99 93 90 88 87 86 83
67 71 75 78 83 87 90 94 99 103 103 100 91 80 69 62 58 56 52 52 48 44 35 40 43 45 48 50 46 44 47 52 60 74 87 93 96 97 91 90 89 88 84
71 75 80 84 86 90 96 99 102 101 95 83 72 61 54 44 36 38 44 49 51 47 42 41 43 45 46 50 47 44 41 40 46 54 64 76 89 93 94 90 90 90 86
76 80 83 85 89 94 98 103 99 91 78 65 52 42 32 37 40 45 44 48 54 52 47 45 44 44 46 46 48 48 45 41 40 42 50 58 67 78 90 91 90 90 87
80 83 86 89 94 97 101 97 86 72 56 44 35 35 37 41 43 46 48 54 50 52 54 40 44 40 39 41 42 44 48 48 45 41 41 44 50 62 73 84 90 89 88
83 86 89 92 98 100 93 82 67 51 40 35 36 37 40 44 47 47 52 48 48 46 46 42 42 42 43 42 41 39 43 47 50 47 44 43 40 46 62 74 80 87 88
85 87 90 96 98 92 79 66 50 39 36 37 38 39 43 47 48 51 48 47 41 43 46 46 43 44 44 45 45 43 40 41 46 51 49 45 44 40 44 61 75 80 83
85 89 96 99 91 77 65 51 40 35 36 38 39 42 45 50 48 51 47 41 40 43 45 49 48 48 44 42 42 43 44 42 41 46 50 49 46 42 41 45 56 71 80
90 96 98 90 76 65 52 42 34 34 37 37 39 42 47 48 49 48 45 38 40 44 48 49 48 45 40 37 37 39 41 42 39 42 47 50 48 45 41 42 44 51 64
94 95 89 75 65 54 42 36 33 36 37 36 38 41 44 46 49 45 39 38 40 46 47 47 44 40 37 32 31 34 37 40 41 41 46 49 49 47 43 41 41 40 45
94 87 74 65 55 43 36 34 34 35 34 36 39 42 42 45 46 41 34 36 42 45 47 46 40 36 31 30 31 33 36 38 39 41 45 45 48 49 46 42 42 37 32
84 73 65 56 45 36 33 32 33 33 35 37 40 40 43 44 43 35 32 35 41 42 44 42 36 31 26 24 25 26 27 30 35 39 42 43 44 49 50 45 41 36 31
73 66 57 47 38 34 33 32 33 34 34 36 38 40 41 42 39 31 29 33 38 39 42 38 31 25 21 18 17 13 14 17 24 31 36 37 39 44 51 48 45 41 37
67 59 49 40 35 33 32 31 31 32 34 35 38 39 40 40 34 28 27 31 35 36 38 35 28 22 18 13 9 10 10 12 18 25 30 32 36 39 49 53 48 47 46
Wind_Direction
296 293 291 291 297 298 294 300 300 297 295 294 294 294 293 291 290 289 286 282 277 276 274 272 272 273 273 270 264 262 262 261 259 259 266 261 257 252 246 234 230 230 233
296 292 286 292 292 302 297 295 293 292 292 291 289 288 287 285 283 281 279 279 277 274 272 271 270 268 267 269 269 266 262 261 260 261 255 260 258 256 251 246 235 235 233
295 288 291 303 295 296 296 290 289 291 291 290 290 289 287 286 284 283 282 280 279 278 275 273 271 270 269 265 262 262 263 262 260 257 258 253 253 252 251 248 242 239 243
299 293 295 299 297 299 295 291 292 292 293 295 294 291 289 289 287 285 284 282 280 278 277 276 276 273 270 268 264 261 258 256 258 260 258 255 251 248 245 248 246 240 241
297 294 295 300 299 295 295 297 299 299 297 296 295 294 293 291 290 288 285 283 282 281 280 278 276 274 273 271 268 264 260 257 253 252 255 256 255 252 249 246 245 245 242
295 298 298 297 295 295 300 301 300 299 298 298 299 299 298 297 296 293 290 288 285 283 280 278 276 274 271 269 267 265 262 259 256 252 249 248 250 250 250 249 245 242 242
298 296 295 295 295 297 304 307 307 306 303 302 302 301 299 297 295 294 292 289 287 284 281 278 276 273 270 268 266 262 260 259 258 254 250 247 244 245 245 245 244 243 240
294 294 295 298 304 306 306 303 303 303 305 306 305 303 300 298 295 292 290 288 285 283 281 277 273 270 268 266 264 262 259 257 256 254 252 248 245 240 240 242 242 242 241
304 303 303 303 301 300 301 303 304 305 304 305 306 305 302 300 298 296 295 294 291 287 283 278 274 269 264 261 258 258 257 255 253 252 250 248 246 243 239 237 237 238 239
299 297 295 298 301 303 304 305 306 306 306 306 306 305 303 301 297 294 291 288 285 283 280 277 274 272 268 263 259 254 252 250 249 249 248 247 245 243 241 237 236 234 234
295 297 301 302 304 304 306 308 307 306 307 306 304 302 300 299 296 294 291 286 284 280 276 272 270 268 265 263 260 256 251 247 245 243 243 244 243 242 241 239 236 235 232
304 304 305 307 307 308 308 307 307 307 307 306 306 305 302 300 297 291 284 288 288 284 280 278 276 273 272 269 263 259 254 250 247 244 242 241 242 241 239 239 236 234 234
309 309 308 309 308 308 308 308 308 307 308 309 308 305 301 296 294 292 292 292 292 292 288 283 280 275 272 272 273 266 259 253 248 245 242 241 240 240 238 237 236 234 231
309 308 308 307 309 311 311 310 309 310 310 311 308 303 299 299 297 297 297 297 296 294 289 286 284 279 276 273 268 270 262 253 248 245 243 240 239 240 238 236 234 234 232
310 310 311 312 312 313 311 311 311 312 312 308 305 303 301 304 305 306 305 303 301 299 294 291 285 279 274 272 269 264 263 256 247 243 241 241 238 236 237 235 234 233 230
312 312 312 312 312 312 311 312 313 311 309 307 306 305 305 309 312 310 306 305 305 302 298 296 289 283 278 272 267 262 256 252 246 240 238 237 236 236 235 235 234 234 232
313 313 313 313 313 311 311 314 312 310 308 308 308 309 313 312 315 313 308 308 305 302 300 300 294 290 282 276 268 260 254 249 245 239 237 236 235 231 230 233 234 234 233
314 315 315 314 311 312 315 314 311 309 306 305 311 312 312 315 316 312 312 308 305 301 299 299 294 290 284 277 272 267 257 250 243 238 234 235 232 229 226 224 228 232 232
316 315 314 312 314 316 315 313 310 305 301 302 307 311 313 315 314 313 312 310 306 304 304 303 301 295 288 278 269 264 260 254 244 238 233 230 230 226 225 226 224 224 228
315 315 315 316 318 317 315 311 307 302 301 304 307 310 314 315 313 317 314 311 307 307 306 305 304 298 290 279 269 259 254 253 248 239 234 229 227 226 221 223 226 225 222
317 316 317 319 318 317 313 309 303 303 307 307 309 312 314 314 316 317 315 310 310 310 310 309 307 301 293 279 266 254 249 246 247 238 233 227 224 221 221 218 222 226 227
318 319 321 319 318 315 311 306 303 309 310 311 312 312 314 315 318 317 313 312 313 315 315 315 311 302 290 277 262 253 247 244 240 238 228 225 220 217 217 218 217 222 228
320 322 320 320 317 313 309 308 309 311 313 313 314 316 315 317 319 317 312 313 318 322 322 320 315 305 293 276 263 256 248 244 240 237 224 223 217 214 212 215 217 217 220
323 322 321 319 315 311 307 307 309 313 314 315 317 316 317 319 318 317 314 317 325 326 328 325 321 311 299 281 272 263 252 241 233 227 220 217 219 212 210 213 215 212 221
322 322 320 317 313 311 308 308 311 314 316 317 317 316 319 321 318 316 314 323 329 331 332 332 330 320 308 292 277 247 238 225 219 217 213 211 218 213 207 210 210 210 215
322 321 318 316 314 314 314 312 313 315 317 318 319 321 322 322 319 315 316 328 333 337 338 338 341 335 325 311 273 224 230 226 216 206 203 206 212 210 206 208 209 208 207
Height
5805 5801 5799 5798 5795 5793 5790 5787 5785 5782 5780 5778 5775 5773 5771 5769 5767 5765 5764 5763 5761 5759 5758 5758 5757 5756 5756 5756 5757 5755 5756 5757 5756 5756 5756 5761 5763 5763 5762 5764 5765 5765 5770
5798 5795 5793 5791 5788 5785 5782 5780 5776 5773 5771 5769 5766 5764 5762 5759 5757 5755 5753 5752 5751 5750 5749 5747 5746 5746 5746 5745 5745 5746 5746 5746 5748 5749 5748 5747 5751 5753 5754 5759 5758 5757 5762
5789 5787 5785 5782 5779 5776 5773 5769 5766 5764 5762 5759 5756 5753 5750 5748 5746 5743 5741 5740 5738 5737 5736 5735 5735 5734 5733 5732 5733 5733 5734 5735 5734 5737 5740 5741 5739 5741 5746 5749 5750 5750 5755
5784 5780 5777 5773 5770 5766 5763 5760 5757 5754 5751 5748 5745 5742 5739 5735 5732 5730 5728 5725 5723 5722 5720 5719 5719 5719 5719 5718 5717 5718 5719 5721 5722 5722 5724 5728 5733 5734 5735 5737 5739 5743 5748
5774 5771 5767 5762 5758 5755 5752 5749 5745 5742 5739 5735 5731 5728 5724 5720 5716 5713 5710 5708 5706 5704 5702 5701 5701 5700 5700 5700 5701 5701 5702 5703 5706 5708 5709 5711 5714 5718 5722 5724 5726 5731 5736
5765 5760 5755 5751 5747 5744 5741 5737 5733 5729 5724 5720 5715 5710 5705 5700 5695 5691 5688 5685 5683 5680 5678 5677 5676 5676 5677 5678 5679 5681 5682 5684 5687 5690 5693 5695 5698 5702 5706 5711 5714 5718 5723
5752 5748 5744 5740 5736 5732 5726 5720 5714 5710 5705 5701 5696 5690 5684 5679 5674 5669 5664 5661 5658 5655 5652 5649 5648 5649 5650 5652 5654 5656 5659 5662 5665 5668 5673 5677 5681 5686 5690 5696 5701 5706 5709
5745 5740 5734 5728 5723 5718 5713 5707 5701 5694 5687 5681 5674 5667 5662 5658 5654 5648 5641 5635 5632 5627 5623 5620 5620 5620 5621 5622 5624 5628 5632 5636 5639 5643 5647 5653 5659 5666 5672 5678 5684 5690 5695
5735 5729 5723 5717 5712 5705 5698 5691 5684 5676 5668 5660 5652 5642 5634 5628 5618 5615 5607 5599 5594 5590 5587 5585 5583 5583 5583 5586 5592 5598 5602 5607 5611 5615 5621 5626 5633 5640 5649 5657 5665 5673 5680
5723 5718 5713 5706 5698 5689 5681 5672 5663 5654 5644 5635 5624 5614 5604 5595 5586 5586 5580 5572 5567 5559 5552 5548 5542 5541 5542 5547 5554 5560 5567 5572 5580 5586 5590 5598 5605 5613 5623 5633 5641 5652 5661
5712 5705 5698 5690 5681 5670 5660 5650 5641 5632 5622 5611 5601 5590 5580 5567 5554 5542 5539 5535 5529 5522 5517 5513 5510 5506 5505 5506 5511 5519 5530 5538 5545 5553 5561 5568 5577 5585 5594 5607 5617 5628 5639
5697 5689 5681 5671 5660 5650 5641 5631 5621 5610 5598 5586 5572 5558 5545 5534 5522 5510 5502 5499 5498 5497 5489 5485 5481 5477 5474 5475 5477 5481 5490 5500 5510 5520 5529 5539 5548 5559 5569 5579 5593 5604 5615
5681 5673 5663 5653 5644 5634 5624 5613 5601 5586 5572 5556 5542 5527 5515 5506 5498 5489 5481 5476 5473 5474 5472 5466 5462 5458 5455 5455 5455 5454 5459 5465 5475 5486 5499 5509 5519 5532 5544 5553 5565 5577 5592
5667 5658 5648 5639 5628 5615 5603 5589 5574 5557 5542 5528 5515 5503 5492 5484 5478 5471 5465 5459 5457 5454 5454 5452 5449 5444 5441 5439 5442 5439 5440 5442 5448 5457 5466 5478 5492 5503 5516 5527 5538 5551 5567
5653 5643 5632 5620 5608 5594 5580 5565 5549 5532 5518 5504 5494 5484 5477 5470 5465 5459 5453 5447 5441 5439 5439 5439 5434 5429 5426 5423 5425 5425 5426 5428 5430 5435 5441 5450 5464 5478 5489 5502 5514 5527 5542
5637 5626 5614 5602 5589 5574 5558 5542 5525 5511 5498 5487 5479 5472 5466 5461 5455 5448 5441 5435 5428 5421 5419 5420 5418 5414 5410 5409 5408 5409 5411 5414 5417 5420 5424 5430 5439 5451 5465 5477 5491 5503 5518
5620 5608 5596 5583 5569 5554 5537 5521 5506 5491 5481 5474 5468 5462 5456 5450 5444 5437 5430 5423 5415 5407 5400 5408 5399 5398 5396 5393 5392 5392 5394 5397 5402 5408 5412 5416 5422 5431 5442 5454 5467 5480 5495
5602 5590 5576 5563 5548 5530 5514 5500 5486 5476 5469 5464 5459 5453 5447 5440 5434 5427 5419 5411 5403 5395 5389 5391 5387 5384 5380 5378 5376 5377 5377 5380 5385 5392 5398 5403 5409 5415 5423 5432 5444 5458 5473
5585 5572 5557 5542 5525 5509 5494 5482 5472 5466 5460 5455 5450 5444 5438 5430 5423 5416 5408 5400 5392 5385 5378 5373 5373 5368 5363 5360 5360 5361 5363 5364 5368 5374 5382 5390 5396 5402 5409 5416 5424 5436 5450
5569 5554 5536 5519 5502 5488 5476 5467 5461 5456 5450 5445 5439 5434 5427 5420 5412 5404 5396 5388 5382 5375 5368 5360 5356 5349 5345 5342 5341 5344 5346 5350 5354 5359 5367 5376 5384 5391 5397 5404 5412 5420 5430
5548 5532 5515 5498 5484 5473 5463 5456 5451 5447 5441 5436 5430 5424 5417 5409 5400 5392 5385 5379 5372 5365 5357 5348 5340 5332 5327 5324 5324 5326 5330 5333 5340 5345 5351 5360 5370 5380 5388 5395 5401 5407 5415
5529 5513 5496 5482 5470 5460 5453 5448 5443 5437 5432 5426 5421 5415 5408 5400 5392 5383 5376 5369 5363 5354 5345 5335 5326 5318 5312 5310 5310 5311 5314 5319 5326 5330 5336 5346 5358 5368 5377 5385 5393 5399 5405
5509 5493 5479 5468 5458 5450 5444 5439 5434 5429 5423 5418 5412 5406 5399 5390 5382 5375 5368 5362 5354 5343 5332 5322 5313 5305 5300 5297 5297 5299 5301 5305 5311 5317 5325 5334 5345 5356 5366 5375 5384 5392 5398
5491 5477 5466 5456 5447 5441 5436 5431 5426 5420 5415 5409 5403 5397 5390 5382 5373 5367 5361 5354 5346 5335 5325 5313 5303 5295 5290 5287 5286 5286 5287 5291 5297 5304 5313 5324 5333 5345 5356 5365 5374 5384 5390
5476 5465 5454 5445 5439 5433 5428 5423 5418 5412 5407 5401 5395 5388 5381 5373 5365 5359 5354 5348 5339 5329 5318 5307 5297 5289 5283 5280 5279 5279 5282 5285 5290 5296 5305 5316 5324 5335 5345 5355 5365 5374 5381
5464 5453 5444 5436 5430 5425 5420 5415 5410 5405 5400 5394 5387 5380 5372 5365 5358 5353 5348 5342 5334 5324 5314 5303 5294 5286 5280 5277 5276 5278 5280 5283 5287 5292 5301 5310 5317 5326 5336 5345 5355 5364 5372